Location: ???????
(55.4362°N, 38.1183°E)
Time: 07:36:33
(UTC+00:00)

Cosmos 2278 Rocket - Pass Details

Date: 28 October 2021
Orbit: 841 x 845 km, 71.0° (Epoch: 04 December)

Event Time Altitude Azimuth Distance (km) Brightness Sun altitude
Rises 16:46:37 0° 325° (NW) 3,418 6.0 -24.4°
Reaches altitude 10° 16:49:05 10° 324° (NW) 2,479 5.2 -24.7°
Maximum altitude 16:54:45 76° 240° (WSW) 877 2.2 -25.5°
Enters shadow 16:56:12 51° 169° (S) 1,056 2.5 -25.7°
